{"data":{"norad_id":66573,"epoch":"2026-09-19T11:23:03.504768Z","epoch_age_seconds":175121,"freshness":"STALE","line1":"1 66573U 25268S   26262.47434612  .00011311  00000+0  41976-3 0  9995","line2":"2 66573  43.0010 332.9252 0001700 274.8657  85.2000 15.27592095 47595","mean_motion":15.27592095,"eccentricity":0.00017,"inclination_deg":43.001,"raan_deg":332.9252,"arg_perigee_deg":274.8657,"mean_anomaly_deg":85.2,"bstar":0.00041976,"rev_number":4759,"period_min":94.266002338798,"perigee_km":481.84648401795,"apogee_km":484.17927497698,"semimajor_km":6861.1498794975,"source":"CELESTRAK","updated_at":"2026-09-21T09:00:35.972827Z"}}